Regional Weather Roundup
Issued by NWS Charleston, SC

Current Version | Previous Version | Graphics & Text | Print | Product List | Glossary On
Versions: 1 2 3 4 5 6 7 8 9 10 11 12 13 14 15 16 17 18 19 20 21 22 23 24 25 26 27 28 29 30 31 32 33 34 35 36 37 38 39 40 41 42 43 44 45 46 47 48 49 50
000
ASUS42 KCHS 192227
RWRCHS

Regional Weather Roundup
National Weather Service Charleston SC
500 PM EST FRI JAN 19 2018

NOTE: "fair" indicates few or no clouds below 12,000 feet with no
significant weather and/or obstructions to visibility.

Not all stations are quality controlled. Use data with caution,
especially dewpoint observations.

SCZ027-030-031-034>040-042>050-192300-
...Southeast South Carolina...

CITY           SKY/WX    TMP DP  RH WIND       PRES   REMARKS
N Charleston   FAIR      60  18  19 W8        30.20S
Waterfront Prk NOT AVBL
Mount Pleasant FAIR      52  36  54 S7        30.21R
Johns Island   FAIR      50  32  50 SW10      30.22S
Pinopolis        N/A     59  21  23 SW5       30.10S
Moncks Corner  FAIR      55  12  18 SW5       30.19S
Summerville    FAIR      55  18  22 CALM      30.21S
Beaufort MCAS  FAIR      58  28  32 SE8       30.22S
Beaufort Arpt  FAIR      50  32  50 S8        30.22S
Hilton Head Is CLEAR     50  32  50 S12       30.25R
Walterboro     FAIR      55  14  19 CALM      30.21S
Allendale      FAIR      57   7  13 CALM      30.20S

...Southern Midlands and Pee Dee...

CITY           SKY/WX    TMP DP  RH WIND       PRES   REMARKS
Georgetown     FAIR      55  21  26 S3        30.19S
Kingstree      FAIR      55  10  16 CALM      30.18S
Orangeburg     FAIR      58  14  17 W8        30.19S
Barnwell         N/A     59  16  18 SW5       30.20F
Aiken          FAIR      54  12  19 SW5       30.22F
Manning        FAIR      59  12  15 MISG      30.19S
Columbia       FAIR      59  23  25 NW3       30.18S
Sumter         FAIR      58  17  20 W6        30.16S
Florence       FAIR      57  16  20 SW8       30.18S
Myrtle Beach   FAIR      52  32  46 SW8       30.19F
N Myrtle Beach FAIR      48  37  65 SW12      30.18F

$$

GAZ063-065-086>088-099>101-113>116-118-119-134>141-150-192300-
...Southeast Georgia...

CITY           SKY/WX    TMP DP  RH WIND       PRES   REMARKS
Savannah Arpt  FAIR      59  13  16 SW7       30.24R
Hunter AAF     FAIR      59  18  20 SW6       30.21S
Fort Stewart   FAIR      59  14  17 W6        30.22F
Statesboro     FAIR      58  -4   8 W5        30.23S
Sylvania       FAIR      58  16  19 CALM      30.23S
Claxton        FAIR      55  18  23 CALM      30.24S

...CSRA, Central and far Southeast Georgia...

CITY           SKY/WX    TMP DP  RH WIND       PRES   REMARKS
Thomson        FAIR      57   9  14 NW7       30.26R
Augusta-Bush   FAIR      60   5  11 W8        30.19S
Augusta-Daniel FAIR      61   8  12 SW6       30.20S
Swainsboro     FAIR      59  16  18 CALM      30.24S
Vidalia        FAIR      59  16  18 W3        30.24S
Eastman        FAIR     N/A N/A N/A SW3       30.27S
Hazlehurst     FAIR      58 -16   4 CALM      30.24S
Alma           FAIR      58  10  15 W5        30.26R
Waycross       FAIR      57   8  14 NW5       30.26R
Jesup          FAIR      57  16  19 CALM      30.26S
Baxley         FAIR      54   9  16 CALM      30.25S
Brunswick      FAIR      57  19  23 W5        30.26S
Saint Simons   FAIR      52  30  43 SE5       30.25S

$$

SCZ027-028-034-036>038-045-046-048>050-GAZ119-141-192300-
...Lake and Supplemental Coastal Observations...

STATION/POSITION TIME  TEMP    WIND        PRES    WAVE   SWELL
                       AIR SEA DIR/SP/G            HT/PER HT/PER/DIR
                 (UTC) (F)     (DEG/KT/KT) (MB)    (FT/S) (FT/S/D)
Winyah Bay       2130   55     200/  6     1022.0S
Lake Murray      2220   56     260/  3/  6 1021.3
ACE Basin NERRS  2145   54     170/  1     1023.0S
Fort Pulaski     2200   49 46  200/  7/  9 1024.0
Sapelo Island    2200   55     150/  4     1024.0

$$

ANZ835-935-AMZ111-154-330-350-352-354-370-450-454-472-192300-
...C-MAN and Buoy Observations...

STATION/POSITION TIME  TEMP    WIND        PRES    WAVE   SWELL
                       AIR SEA DIR/SP/G            HT/PER HT/PER/DIR
                 (UTC) (F)     (DEG/KT/KT) (MB)    (FT/S) (FT/S/D)
Buoy 41004       2210   56 69  240/ 16/ 19 1023.3
Buoy 41008       2150   50 51  170/  8/  8 1024.5F   2/11   2/ 50/11
Folly Beach CMAN 2200   49     220/ 11/ 14 1023.9R
Capers Nearshore 2208   47 49  230/ 14/ 19 1022.6F
Fripp Nearshore  2208   45 45  210/ 10/ 14 1022.8R


STATION/POSITION TIME  TEMP    WIND        PRES    WAVE   SWELL
                       AIR SEA DIR/SP/G            HT/PER HT/PER/DIR
                 (UTC) (F)     (DEG/KT/KT) (MB)    (FT/S) (FT/S/D)
5E St. Marys GA  2200      49                N/A     2/11   2/100/11
Frying Pan Buoy  2210   56 62  240/ 16/ 19 1022.1
Buoy 41025       2210   57     240/ 16/ 19 1020.8
Cape Lookout NC  2200          220/  7/  9 1021.5F
Buoy 41002       2150   62 70  270/  8/ 10 1024.0R   7/11   7/ 40/11
Buoy 41010       NOT AVBL
St Augustine FL  2200   50 50   CALM  /  1 1025.2F


$$




USA.gov is the U.S. government's official web portal to all federal, state and local government web resources and services.